Flag for Netherlands Weather past 2 weeks in Hilversum, Netherlands

Now
54 °F

Overcast.


Feels Like: 53 °F
Forecast: 50 / 62 °F
Wind: 5 mph from Southwest

Location: De Bilt

Current Time: Aug 22, 2014 at 5:58:46 AM

Latest Report: Aug 22, 2014 at 4:00 AM


Visibility: 25 mi

Pressure: 29.87 "Hg

Humidity: 82%

Dew point: 49 °F

Location of HilversumLocation

Historic Weather in Hilversum — Graph

°F

Hilversum temperature yesterday

Maximum temperature yesterday: 64 °F (at 4:00 PM)
Minimum temperature yesterday: 46 °F (at 7:00 AM)
Average temperature yesterday: 56 °F

Past Weeks' High & Low Weather Summary

 TemperatureHumidityPressure
High73 °F (Aug 9, 6:00 PM)100% (Aug 8, 1:00 AM)30.09 "Hg (Aug 8, 1:00 AM)
Low46 °F (Aug 21, 7:00 AM)51% (Aug 9, 3:00 PM)29.47 "Hg (Aug 10, 7:00 PM)
Average61 °F82%29.83 "Hg
* Reported Aug 7 4:00 AM — Aug 22 4:00 AM, Hilversum, Weather by CustomWeather, © 2014

Note: Actual official high and low records may vary slightly from our data, if they occured in-between our weather recording intervals... More about our weather records

Advertising

Hilversum weather history for previous 24 hours

 ConditionsComfort  
Time TempWeatherWind HumidityBarometerVisibility
4:00 AM
Aug 22
54 °FOvercast.5 mph82%29.87 "Hg25 mi
3:00 AM54 °FPassing clouds.5 mph80%29.88 "Hg28 mi
2:00 AM56 °FOvercast.5 mph77%29.90 "Hg28 mi
1:00 AM56 °FOvercast.3 mph80%29.91 "Hg28 mi
12:00 AM57 °FOvercast.5 mph76%29.92 "Hg28 mi
11:00 PM
Aug 21
56 °FPassing clouds.3 mph78%29.92 "Hg28 mi
10:00 PM56 °FPassing clouds.3 mph78%29.93 "Hg28 mi
9:00 PM59 °FOvercast.3 mph70%29.93 "Hg28 mi
8:00 PM61 °FOvercast.3 mph63%29.93 "Hg28 mi
7:00 PM63 °FPartly sunny.5 mph58%29.94 "Hg28 mi
6:00 PM63 °FPartly sunny.3 mph57%29.95 "Hg28 mi
5:00 PM63 °FOvercast.3 mph62%29.96 "Hg25 mi
4:00 PM64 °FOvercast.2 mph62%29.97 "Hg25 mi
3:00 PM60 °FOvercast.5 mph65%29.98 "Hg17 mi
2:00 PM62 °FOvercast.5 mph61%29.99 "Hg22 mi
1:00 PM63 °FOvercast.6 mph60%29.99 "Hg17 mi
12:00 PM62 °FOvercast.5 mph64%30.00 "Hg25 mi
11:00 AM62 °FScattered clouds.3 mph66%30.00 "Hg22 mi
10:00 AM57 °FScattered clouds.2 mph81%30.00 "Hg22 mi
9:00 AM54 °FSunny.2 mph88%30.01 "Hg11 mi
8:00 AM49 °FFog.2 mph96%30.00 "Hg4 mi
7:00 AM46 °FFog.2 mph100%30.00 "Hg5 mi
6:00 AM49 °FPassing clouds.2 mph94%29.99 "Hg22 mi
5:00 AM50 °FPassing clouds.1 mph91%30.00 "Hg22 mi
Weather by CustomWeather, © 2014

See weather overviewHow to use our weather pages